User: anonymous   Login
Location: Unspecified
(0.0000°N, 0.0000°E)
Time: 15:25:34
(UTC+00:00)
Language:

Snapshot - Orbit

View from above orbital plane
View from above orbital plane
View from above satellite
View from above satellite

Ground track
Ground track

The orbit data is extracted from the following two-line orbital elements,

1 01314U 65027A   15144.94747667  .00000029  00000-0  80415-4 0  9997
2 01314 090.3014 263.8864 0031079 029.4621 107.6526 12.91741441109684
Epoch (UTC): 24 May 2015 22:44:21
Eccentricity: 0.0031079
inclination: 90.3014°
perigee height: 1271 km
apogee height: 1318 km
right ascension of ascending node: 263.8864°
argument of perigee: 29.4621°
revolutions per day: 12.91741441
mean anomaly at epoch: 107.6526°
orbit number at epoch: 10968

The dashed part of the orbit path shows where the satellite is in the earth's shadow,  

DLR